Weather History for Marianna, FL

Change the Weather History Date:

Monday, December 31, 2012

  Actual Average Record
Temperature  
Mean Temperature 47 °F 50 °F  
Max Temperature 64 °F 61 °F 77 °F (2010)
Min Temperature 30 °F 39 °F 21 °F (2000)
Degree Days  
Heating Degree Days 18    
Month to date heating degree days 202  
Since 1 July heating degree days 491  
Cooling Degree Days 0    
Month to date cooling degree days 8  
Year to date cooling degree days 2751  
Moisture  
Dew Point 42 °F    
Average Humidity 75    
Maximum Humidity 92    
Minimum Humidity 57    
Precipitation  
Precipitation 0.00 in 0.12 in 1.97 in (2006)
Month to date precipitation 2.78 3.91  
Year to date precipitation 58.65 53.58  
Sea Level Pressure  
Sea Level Pressure 30.29 in    
Wind  
Wind Speed 1 mph (SE)    
Max Wind Speed 9 mph    
Max Gust Speed 13 mph    
Visibility 10 miles    
Events      
T = Trace of Precipitation, MM = Missing Value Source: NWS Daily Summary

Daily Weather History Graph

Daily Weather History Graph

Search for Another Location

Airport:

Trip Planner

Search our weather history database for the weather conditions in past years. The results will help you decide how hot, cold, wet, or windy it might be!

Date:

Astronomy

Dec. 31, 2012 Rise Set
Actual Time 6:38 AM CST 4:49 PM CST
Civil Twilight 6:11 AM CST 5:16 PM CST
Nautical Twilight 5:41 AM CST 5:46 PM CST
Astronomical Twilight 5:12 AM CST 6:15 PM CST
Moon 8:04 PM CST (12/31) 8:32 AM CST (12/31)
Length of Visible Light 11h 04m
Length of Day
10h 11m
Waning Gibbous, 90% of the Moon is Illuminated
Dec 31
Waning Gibbous
Jan 4
Last Quarter
Jan 11
New
Jan 18
First Quarter
Jan 26
Full

Hourly Weather History & Observations

Time (CST) Temp. Windchill Dew Point Humidity Pressure Visibility Wind Dir Wind Speed Gust Speed Precip Events Conditions
12:53 AM 32.0 °F - 30.0 °F 92% 30.38 in 10.0 mi Calm Calm - N/A   Clear
1:53 AM 32.0 °F - 30.0 °F 92% 30.38 in 10.0 mi Calm Calm - N/A   Clear
2:53 AM 32.0 °F - 28.9 °F 88% 30.37 in 10.0 mi Calm Calm - N/A   Clear
3:53 AM 30.9 °F - 28.9 °F 92% 30.35 in 10.0 mi Calm Calm - N/A   Clear
4:53 AM 33.1 °F - 30.0 °F 89% 30.35 in 10.0 mi Calm Calm - N/A   Clear
5:53 AM 30.9 °F - 28.9 °F 92% 30.38 in 10.0 mi Calm Calm - N/A   Clear
6:53 AM 33.1 °F 30.0 °F 30.9 °F 92% 30.34 in 10.0 mi ESE 3.5 mph - N/A   Clear
7:53 AM 37.9 °F - 34.0 °F 86% 30.36 in 10.0 mi Calm Calm - N/A   Clear
8:53 AM 45.0 °F - 36.0 °F 71% 30.37 in 10.0 mi Calm Calm - N/A   Clear
9:53 AM 51.1 °F - 39.0 °F 63% 30.37 in 10.0 mi East 3.5 mph - N/A   Clear
10:53 AM 55.0 °F - 42.1 °F 62% 30.35 in 10.0 mi ESE 5.8 mph - N/A   Clear
11:42 AM 57.2 °F - 44.6 °F 63% 30.32 in 10.0 mi Calm Calm - N/A   Mostly Cloudy
11:53 AM 59.0 °F - 44.1 °F 58% 30.31 in 10.0 mi Calm Calm - N/A   Overcast
12:53 PM 61.0 °F - 46.0 °F 58% 30.28 in 10.0 mi ENE 3.5 mph - N/A   Overcast
1:53 PM 63.0 °F - 48.0 °F 58% 30.25 in 10.0 mi Calm Calm - N/A   Clear
2:53 PM 63.0 °F - 48.9 °F 60% 30.23 in 10.0 mi Calm Calm - N/A   Mostly Cloudy
3:53 PM 62.1 °F - 50.0 °F 65% 30.22 in 10.0 mi SE 3.5 mph - N/A   Overcast
4:53 PM 59.0 °F - 50.0 °F 72% 30.22 in 10.0 mi Calm Calm - N/A   Mostly Cloudy
5:53 PM 55.9 °F - 50.0 °F 80% 30.22 in 10.0 mi Calm Calm - N/A   Mostly Cloudy
6:53 PM 55.0 °F - 50.0 °F 83% 30.22 in 10.0 mi Calm Calm - N/A   Overcast
7:53 PM 55.0 °F - 50.0 °F 83% 30.24 in 10.0 mi Calm Calm - N/A   Overcast
8:53 PM 55.0 °F - 50.0 °F 83% 30.23 in 10.0 mi Calm Calm - N/A   Overcast
9:53 PM 55.9 °F - 50.0 °F 80% 30.21 in 10.0 mi SE 4.6 mph - N/A   Overcast
10:53 PM 55.9 °F - 50.0 °F 80% 30.17 in 10.0 mi SSE 4.6 mph - N/A   Clear
11:53 PM 55.0 °F - 50.0 °F 83% 30.14 in 10.0 mi South 5.8 mph - N/A   Clear